{"data":{"norad_id":68547,"intl_designator":"2026-070F","name":"STARLINK-37245","alt_names":[],"object_type":"PAYLOAD","status":"ACTIVE","operator":null,"country":"US","launch_date":"2026-04-02","launch_site_code":"AFETR","launch_vehicle":null,"mission":null,"orbit_class":"UNKNOWN","rcs_meters":null,"size_class":null,"mass_kg":null,"dimensions":null,"purposes":["comms"],"wikipedia_slug":null,"has_3d_model":false,"image_url":null,"decayed_at":null,"tle_current":{"epoch":"2026-09-19T05:59:05.942976Z","epoch_age_seconds":152820,"freshness":"FRESH","line1":"1 68547U 26070F   26262.24937434  .00030061  00000+0  89667-3 0  9997","line2":"2 68547  53.1578 179.6880 0001324  87.1814 272.9340 15.34421397 26249","mean_motion":15.34421397,"eccentricity":0.0001324,"inclination_deg":53.1578,"raan_deg":179.688,"arg_perigee_deg":87.1814,"mean_anomaly_deg":272.934,"bstar":0.00089667,"rev_number":2624,"period_min":93.846449405319,"perigee_km":461.73392572518,"apogee_km":463.54536338066,"semimajor_km":6840.7766445529,"source":"CELESTRAK","updated_at":"2026-09-20T09:00:43.932423Z"}}}